TimeEDT,TemperatureF,Dew PointF,Humidity,Sea Level PressureIn,VisibilityMPH,Wind Direction,Wind SpeedMPH,Gust SpeedMPH,PrecipitationIn,Events,Conditions,WindDirDegrees,DateUTC
12:33 AM,42.8,42.8,100,30.28,1.0,Calm,Calm,-,N/A,,Mist,0,2011-10-05 04:33:00
12:45 AM,42.8,42.8,100,30.28,0.2,Calm,Calm,-,N/A,Fog,Fog,0,2011-10-05 04:45:00
12:53 AM,43.0,42.1,97,30.29,0.2,Calm,Calm,-,N/A,Fog,Fog,0,2011-10-05 04:53:00
1:01 AM,44.6,42.8,93,30.29,1.5,Calm,Calm,-,N/A,,Mostly Cloudy,0,2011-10-05 05:01:00
1:05 AM,44.6,42.8,93,30.28,2.5,Calm,Calm,-,N/A,,Mostly Cloudy,0,2011-10-05 05:05:00
1:17 AM,42.8,42.8,100,30.28,1.0,Calm,Calm,-,N/A,,Mist,0,2011-10-05 05:17:00
1:24 AM,42.8,42.8,100,30.28,0.8,Calm,Calm,-,N/A,,Mist,0,2011-10-05 05:24:00
1:26 AM,42.8,42.8,100,30.28,1.2,Calm,Calm,-,N/A,,Overcast,0,2011-10-05 05:26:00
1:33 AM,42.8,42.8,100,30.29,0.8,Calm,Calm,-,N/A,,Mist,0,2011-10-05 05:33:00
1:53 AM,43.0,42.1,97,30.29,0.2,Calm,Calm,-,N/A,Fog,Fog,0,2011-10-05 05:53:00
2:53 AM,42.1,41.0,96,30.29,0.2,Calm,Calm,-,N/A,Fog,Fog,0,2011-10-05 06:53:00
3:41 AM,42.8,41.0,93,30.28,1.2,Calm,Calm,-,N/A,,Overcast,0,2011-10-05 07:41:00
3:53 AM,41.0,41.0,100,30.29,0.8,Calm,Calm,-,N/A,,Mist,0,2011-10-05 07:53:00
4:53 AM,41.0,39.9,96,30.29,1.0,Calm,Calm,-,N/A,,Overcast,0,2011-10-05 08:53:00
5:08 AM,42.8,41.0,93,30.29,0.5,Calm,Calm,-,N/A,Fog,Fog,0,2011-10-05 09:08:00
5:53 AM,42.1,41.0,96,30.31,0.2,Calm,Calm,-,N/A,Fog,Fog,0,2011-10-05 09:53:00
7:53 AM,43.0,42.1,97,30.33,0.2,Calm,Calm,-,N/A,Fog,Fog,0,2011-10-05 11:53:00
8:53 AM,45.0,45.0,100,30.34,0.2,Calm,Calm,-,N/A,Fog,Fog,0,2011-10-05 12:53:00
9:35 AM,48.2,48.2,100,30.34,1.2,Calm,Calm,-,N/A,,Overcast,0,2011-10-05 13:35:00
9:39 AM,50.0,50.0,100,30.34,2.5,Calm,Calm,-,N/A,,Overcast,0,2011-10-05 13:39:00
9:46 AM,51.8,50.0,94,30.34,4.0,Calm,Calm,-,N/A,,Overcast,0,2011-10-05 13:46:00
9:53 AM,51.1,51.1,100,30.34,5.0,Calm,Calm,-,N/A,,Mostly Cloudy,0,2011-10-05 13:53:00
10:05 AM,53.6,51.8,94,30.34,5.0,Calm,Calm,-,N/A,,Scattered Clouds,0,2011-10-05 14:05:00
10:53 AM,59.0,55.0,87,30.34,8.0,Calm,Calm,-,N/A,,Clear,0,2011-10-05 14:53:00
11:53 AM,66.0,55.0,68,30.33,10.0,NW,4.6,-,N/A,,Clear,320,2011-10-05 15:53:00
12:53 PM,69.1,55.9,63,30.31,10.0,Calm,Calm,-,N/A,,Clear,0,2011-10-05 16:53:00
1:53 PM,72.0,54.0,53,30.29,10.0,Variable,4.6,-,N/A,,Clear,0,2011-10-05 17:53:00
3:53 PM,73.9,50.0,43,30.25,10.0,Calm,Calm,-,N/A,,Clear,0,2011-10-05 19:53:00
4:53 PM,75.9,50.0,40,30.24,10.0,Calm,Calm,-,N/A,,Clear,0,2011-10-05 20:53:00
7:53 PM,57.0,53.1,87,30.26,10.0,Calm,Calm,-,N/A,,Clear,0,2011-10-05 23:53:00
8:53 PM,52.0,51.1,97,30.27,10.0,Calm,Calm,-,N/A,,Clear,0,2011-10-06 00:53:00
10:53 PM,48.9,48.0,97,30.28,9.0,Calm,Calm,-,N/A,,Clear,0,2011-10-06 02:53:00
11:53 PM,48.9,46.9,93,30.28,9.0,Calm,Calm,-,N/A,,Clear,0,2011-10-06 03:53:00